This is the latest recevied weather packets stored in our database for station/object DM3FAM-13. If no packets are shown the sender has not sent any weather packets the latest 1 day(s).
| Time | Temp. | Humidity | Pressure | Rain* | Wind** | Luminosity | Snow |
|---|---|---|---|---|---|---|---|
| 1778086831 | 10° C | 90% | 1009.2 hPa | 2.54 mm | - | 9 W/m² | - |
| 1778086230 | 10° C | 91% | 1009.1 hPa | 2.54 mm | - | 15 W/m² | - |
| 1778083830 | 10° C | 92% | 1009 hPa | 1.52 mm | - | 17 W/m² | - |
| 1778082631 | 10° C | 92% | 1008.9 hPa | 1.02 mm | - | 19 W/m² | - |
| 1778081431 | 10° C | 89% | 1008.7 hPa | 0.76 mm | - | 35 W/m² | - |
| 1778080830 | 10.56° C | 89% | 1008.7 hPa | 0.51 mm | - | 42 W/m² | - |
| 1778079631 | 10.56° C | 89% | 1008.6 hPa | 1.02 mm | - | 51 W/m² | - |
| 1778078431 | 10.56° C | 88% | 1008.6 hPa | 1.52 mm | - | 75 W/m² | - |
| 1778077831 | 11.11° C | 86% | 1008.5 hPa | 1.52 mm | - | 90 W/m² | - |
| 1778075430 | 11.67° C | 88% | 1008.4 hPa | 2.29 mm | - | 138 W/m² | - |
| 1778073630 | 11.11° C | 88% | 1008.4 hPa | 1.52 mm | - | 94 W/m² | - |
| 1778073030 | 11.67° C | 88% | 1008.1 hPa | 1.02 mm | - | 78 W/m² | - |
| 1778072431 | 12.22° C | 88% | 1008 hPa | 1.02 mm | - | 20 W/m² | - |
| 1778071831 | 12.22° C | 87% | 1007.8 hPa | 1.02 mm | - | 73 W/m² | - |
| 1778070031 | 12.78° C | 87% | 1007.5 hPa | 1.27 mm | - | 98 W/m² | - |
| 1778067031 | 12.78° C | 86% | 1007 hPa | 0.51 mm | - | 38 W/m² | - |
| 1778066431 | 13.33° C | 82% | 1007.1 hPa | 0.51 mm | - | 51 W/m² | - |
| 1778062830 | 13.89° C | 76% | 1007 hPa | 0 mm | - | 88 W/m² | - |
| 1778062230 | 14.44° C | 75% | 1007 hPa | 0 mm | - | 89 W/m² | - |
| 1778061631 | 14.44° C | 75% | 1006.9 hPa | 0 mm | - | 115 W/m² | - |
| 1778061031 | 14.44° C | 76% | 1006.8 hPa | 0 mm | - | 135 W/m² | - |
| 1778059831 | 14.44° C | 76% | 1006.9 hPa | 0 mm | - | 82 W/m² | - |
| 1778058630 | 14.44° C | 75% | 1006.7 hPa | 0 mm | - | 114 W/m² | - |
| 1778056231 | 14.44° C | 74% | 1006.4 hPa | 0 mm | - | 203 W/m² | - |
| 1778055030 | 14.44° C | 75% | 1006.5 hPa | 0 mm | - | 173 W/m² | - |
* Rain latest hour (hover to see other rain measurements)
** Current wind speed in m/s (hover to see current wind gust speed)